GFSSW_250_rhum_240.txt.gz
RH
26 29 29 31 34 32 32 41 49 53 60 62 54 56 57 54 44 43 37 31 26 28 24 21 19 15 8 4 3 2 2 4 7 9 11 13 33 46 96 100 100 100 100 100 100
36 42 40 35 35 37 41 48 52 55 53 58 58 71 72 59 52 58 40 37 28 27 24 23 20 19 10 7 4 3 3 4 6 10 11 12 18 49 75 100 100 100 100 100 100
27 30 32 42 51 55 50 46 48 52 62 67 63 72 79 63 48 51 47 40 35 26 25 26 21 21 16 9 6 5 4 5 7 10 11 13 14 38 48 100 100 100 100 99 100
37 41 42 44 51 60 65 69 71 72 60 61 59 51 54 58 65 49 47 49 38 32 24 30 24 24 22 14 11 7 6 6 8 11 11 12 15 19 51 89 100 98 100 100 100
31 30 38 46 57 65 77 70 92 100 83 62 60 54 51 38 39 51 46 51 44 37 27 34 32 27 23 26 15 10 9 8 8 11 12 12 13 14 45 59 100 100 100 100 100
45 44 51 75 84 95 98 95 89 100 99 73 56 49 44 47 41 44 55 49 46 46 38 48 41 30 31 25 27 16 10 10 11 10 12 12 12 13 23 57 79 100 100 100 100
100 100 100 93 100 100 100 100 100 92 78 86 57 49 54 54 45 44 62 56 52 57 60 62 56 39 34 28 33 26 15 12 13 12 12 12 11 13 14 48 50 73 100 100 98
100 86 100 100 90 86 89 70 61 73 65 59 62 54 56 55 54 47 64 64 59 59 61 99 68 51 43 37 32 32 22 14 13 14 16 13 12 12 13 18 59 58 98 100 100
100 100 100 98 86 94 83 80 74 60 55 52 58 66 64 59 56 54 53 58 71 65 64 100 92 57 51 46 37 35 29 24 15 13 16 16 16 12 13 13 27 54 70 100 100
100 100 100 100 100 100 95 97 94 77 84 65 68 66 72 78 75 70 71 54 79 70 91 98 94 73 61 38 44 39 34 25 25 18 16 15 23 18 15 14 14 40 53 66 99
83 92 100 100 100 100 100 100 95 88 78 71 74 98 95 82 93 100 96 54 84 92 94 82 70 76 57 53 50 40 42 35 27 27 20 12 19 26 20 16 16 18 50 55 56
95 99 92 100 100 100 100 100 100 100 100 99 98 95 100 100 100 100 95 78 86 92 94 66 78 86 77 61 50 52 42 47 40 30 24 28 36 20 25 24 19 21 29 56 83
56 71 99 100 100 100 100 100 100 100 100 100 100 100 100 100 100 100 100 100 100 100 97 96 59 78 96 65 62 60 39 48 46 47 30 24 31 25 17 23 27 22 33 54 98
45 54 64 88 100 100 100 100 100 100 100 100 100 100 100 98 100 100 100 100 100 96 87 99 74 61 91 74 58 60 69 36 38 43 42 27 30 28 27 21 21 29 33 58 91
43 46 47 51 83 98 100 100 100 100 100 100 100 100 100 100 100 100 100 95 77 85 66 67 79 56 54 61 55 58 61 67 46 47 48 34 34 29 30 32 24 23 28 44 91
45 48 44 44 49 74 99 100 100 100 100 96 98 95 98 96 100 99 95 85 73 82 87 83 79 54 52 61 81 65 55 64 70 55 56 40 36 32 26 31 31 24 20 25 47
52 53 54 52 55 56 62 100 100 98 100 100 100 100 100 100 95 90 87 96 88 84 74 67 62 66 76 62 74 75 64 49 79 80 55 62 46 40 31 31 27 30 28 17 23
60 62 61 66 68 62 50 51 70 100 100 100 100 100 100 100 100 99 99 99 99 100 88 73 76 85 86 70 85 68 89 49 69 88 78 58 67 49 39 41 33 28 28 19 12
52 59 64 71 69 78 83 87 98 88 83 98 100 100 100 100 100 100 100 100 100 100 92 90 86 85 76 72 74 72 74 60 57 63 82 66 61 45 49 47 40 32 27 24 13
59 65 55 50 54 58 67 82 99 99 100 93 94 100 100 100 100 100 100 100 100 100 94 88 75 75 65 66 73 88 70 57 57 56 70 67 67 36 53 49 43 39 32 27 18
73 70 79 88 84 69 65 58 70 86 84 93 100 100 100 100 100 100 100 100 100 100 92 86 80 93 90 85 74 78 76 59 54 54 56 56 60 42 35 66 49 44 33 29 25
40 36 37 37 36 36 38 74 100 93 83 70 70 79 100 100 100 100 100 100 100 100 100 100 95 93 100 78 83 80 85 60 49 53 55 55 72 47 47 68 58 48 42 34 29
28 28 27 26 26 26 25 28 32 43 96 92 80 75 70 77 80 86 98 100 100 100 100 100 76 78 92 90 96 92 87 63 63 56 50 58 91 72 55 55 72 48 49 45 30
26 25 26 23 22 21 21 21 22 22 27 37 50 50 53 66 84 70 80 91 89 86 91 93 86 74 75 78 72 72 73 68 62 55 67 55 100 100 55 50 68 56 63 55 46
21 21 23 25 25 23 21 17 19 18 18 19 19 19 20 25 42 54 58 62 68 81 86 71 66 74 81 89 90 97 93 83 64 60 49 98 100 100 92 50 57 68 88 55 55
22 23 22 24 25 24 23 21 20 19 18 19 18 19 18 17 18 18 24 43 59 66 74 74 63 73 68 78 76 75 74 80 88 94 94 100 100 100 100 62 52 55 68 68 64
14 14 15 18 17 17 17 17 17 17 17 18 18 16 15 15 15 15 15 17 18 22 36 51 57 56 54 61 57 39 67 76 83 84 79 68 93 100 100 99 49 48 58 68 62

GFSSW_250_rhum_243.txt.gz
RH
19 21 26 28 29 30 28 26 28 34 41 51 55 58 66 61 64 72 74 60 46 49 48 43 30 26 21 19 17 10 7 3 2 2 3 29 74 12 13 41 100 100 81 93 100
23 27 29 33 37 42 43 43 46 43 45 46 48 55 66 74 72 56 64 62 48 42 50 46 33 28 21 19 20 11 7 4 3 2 4 37 64 13 13 16 55 70 91 100 90
25 27 31 29 29 32 33 43 48 59 64 62 64 66 66 69 74 53 44 39 49 44 46 45 38 30 26 20 23 13 8 5 4 2 4 7 14 19 18 12 30 54 72 100 100
28 30 31 34 35 37 41 44 44 52 72 72 79 97 89 81 64 64 50 44 44 50 48 45 39 32 31 28 22 20 10 6 5 3 3 8 16 22 18 16 20 52 100 100 100
100 69 44 33 30 30 30 32 58 74 79 92 83 88 100 96 60 47 51 57 47 45 45 38 43 32 55 31 25 24 16 10 7 5 5 8 10 13 17 17 16 39 97 100 100
88 100 100 100 98 90 77 76 95 99 91 97 100 100 83 81 84 52 56 62 52 44 42 46 52 32 97 42 27 23 26 13 10 8 8 8 9 10 12 14 12 31 64 100 100
95 94 100 100 100 100 100 100 100 100 100 100 74 59 62 59 64 62 67 61 54 47 43 43 57 38 88 47 32 27 24 24 14 13 11 11 9 10 12 14 15 16 45 83 100
67 75 100 100 100 100 100 100 100 96 90 87 100 85 68 64 64 65 75 65 70 65 53 50 70 48 96 45 44 34 30 30 22 16 14 14 13 10 11 10 16 18 26 56 99
87 83 82 98 98 100 100 100 100 100 97 99 96 86 91 91 80 84 83 87 86 80 70 50 70 77 98 47 50 39 33 34 32 24 18 18 22 14 13 13 16 18 15 31 50
45 69 72 70 87 94 96 100 100 100 100 100 100 100 95 89 77 66 99 95 77 94 99 73 49 100 85 51 52 47 34 38 39 28 24 25 21 22 19 16 15 14 14 14 36
43 42 44 57 71 77 91 95 100 98 100 100 100 100 100 99 72 59 69 93 100 100 100 83 70 95 78 73 71 50 43 41 48 37 27 37 27 19 24 24 19 15 17 15 14
49 46 41 39 39 41 52 75 87 91 100 100 100 100 99 93 99 98 77 98 89 89 100 94 99 100 100 94 80 81 62 46 51 45 35 34 38 27 22 26 28 25 19 20 16
67 61 47 39 38 35 34 37 52 81 87 100 100 100 100 100 100 95 97 84 100 93 100 100 100 100 100 100 70 68 61 42 50 51 39 36 43 39 29 20 22 28 30 30 24
82 72 51 46 36 38 40 35 35 42 58 88 100 100 100 100 99 88 100 97 100 100 78 99 100 100 100 86 84 63 56 44 37 55 53 42 64 40 38 31 22 23 27 30 35
71 69 58 41 35 35 36 41 40 45 42 54 88 100 100 100 100 100 100 100 100 97 98 99 98 100 100 83 87 95 55 56 42 55 58 43 87 51 42 42 32 25 21 25 28
72 60 49 41 38 36 35 38 43 44 46 43 67 96 100 100 100 100 100 93 88 86 92 100 80 100 100 95 87 85 64 59 56 53 78 53 68 80 46 46 41 33 26 23 26
71 58 52 42 41 41 47 45 41 52 60 50 53 58 74 100 100 100 100 100 100 100 100 100 92 74 100 100 100 99 79 67 53 60 74 85 63 90 65 48 53 41 34 26 22
54 54 46 42 39 44 48 46 58 67 81 57 50 54 60 62 100 100 100 100 100 100 100 100 100 99 100 100 100 100 98 74 52 61 86 84 98 63 78 52 65 63 44 38 28
56 53 53 45 43 43 42 43 55 60 59 60 70 68 68 64 52 78 100 100 100 100 100 100 100 100 100 97 100 100 99 79 65 59 66 89 92 72 59 55 67 84 60 48 39
55 49 48 50 43 38 41 48 48 54 63 75 61 56 64 80 94 90 81 94 100 100 100 100 100 100 100 100 84 100 100 82 68 62 57 79 96 84 53 49 71 68 76 70 48
84 79 87 85 74 55 39 39 38 35 29 30 32 56 77 66 66 69 91 91 94 98 100 100 96 84 100 100 100 94 93 95 77 58 58 70 73 88 91 51 59 61 58 56 61
36 40 44 42 43 41 36 34 27 27 30 26 23 28 35 36 37 56 66 80 100 98 91 88 82 77 100 90 88 78 76 94 93 77 47 52 68 100 100 65 47 60 52 55 59
30 30 29 29 31 29 27 27 27 30 27 24 21 23 23 22 23 29 33 80 90 72 89 95 96 100 84 78 77 86 92 82 81 73 55 55 72 100 100 85 47 63 53 59 50
22 22 21 21 22 23 23 23 23 24 24 23 22 22 22 22 23 21 23 28 36 68 95 77 66 70 86 100 100 100 96 88 73 61 68 51 71 100 100 96 74 59 62 56 62
21 20 22 24 23 23 23 24 24 22 22 23 22 22 22 23 23 21 22 21 23 29 33 54 81 83 58 60 78 79 91 100 97 68 52 68 66 100 90 100 88 64 53 57 67
19 18 19 21 22 23 22 21 20 21 21 23 20 21 20 20 19 21 20 21 22 21 23 24 26 33 34 39 52 53 53 57 74 82 72 70 59 75 97 100 90 67 50 49 74
16 16 16 16 16 16 17 17 15 15 16 17 17 17 19 18 16 16 16 18 19 20 21 23 20 21 18 24 27 25 46 48 46 49 55 58 92 100 99 94 96 89 63 55 57

GFSSW_250_rhum_246.txt.gz
RH
19 20 18 18 22 20 22 22 24 27 29 27 34 38 44 45 46 54 66 73 61 44 42 43 43 40 34 30 28 22 17 17 15 8 4 3 4 5 7 9 30 15 52 74 88
20 20 21 23 25 24 29 34 37 43 44 45 48 56 54 54 55 64 68 62 60 48 42 43 45 38 36 33 26 29 18 17 16 7 4 3 3 6 8 10 39 32 22 70 70
36 26 26 26 26 28 29 32 32 32 36 40 45 44 60 60 59 62 73 89 66 47 48 50 46 39 38 36 28 32 20 17 17 8 4 3 2 4 9 10 24 30 37 60 86
71 82 70 55 30 28 31 34 37 36 34 32 31 37 70 72 82 75 100 96 83 53 50 55 51 44 40 40 30 28 24 19 18 10 5 3 3 7 15 16 12 13 17 25 92
76 76 72 98 100 95 74 52 41 40 45 41 42 66 96 86 98 98 83 72 88 63 57 63 54 49 43 42 35 45 26 21 19 18 6 7 3 4 12 12 10 74 22 32 54
72 80 99 94 90 97 100 100 100 100 100 97 95 99 100 100 98 91 68 60 56 67 65 66 63 58 52 43 36 59 36 26 21 22 20 24 13 5 6 6 16 18 24 51 100
67 65 70 81 90 92 99 97 100 100 100 100 100 100 100 93 94 93 96 81 66 65 68 74 77 79 62 53 39 80 54 30 24 24 21 19 70 40 11 11 18 21 14 36 100
65 63 57 57 61 60 66 78 92 98 100 100 98 100 100 100 100 95 93 89 85 87 81 85 97 85 74 60 52 92 46 32 28 30 25 25 16 45 58 15 15 21 16 11 50
55 53 47 44 40 42 51 64 65 72 86 99 99 99 100 100 100 98 100 100 98 78 76 90 73 86 97 91 56 73 55 40 34 31 30 25 23 16 43 53 19 26 19 12 14
72 55 47 45 41 36 37 35 36 51 60 68 77 97 96 100 100 100 100 100 100 85 62 62 54 100 100 100 68 84 85 62 53 34 36 30 24 26 23 18 43 25 13 11 10
73 56 44 42 44 38 38 37 34 40 43 44 48 65 86 98 96 91 85 100 100 100 73 48 61 89 95 100 88 96 99 94 84 49 37 37 31 43 34 30 22 23 21 13 13
80 74 60 62 51 45 44 46 46 35 40 39 34 41 53 72 95 97 100 97 98 82 87 74 63 87 100 91 100 98 100 100 97 58 46 42 34 31 43 36 24 21 24 23 19
68 76 65 61 60 61 57 49 45 40 38 42 36 29 31 38 56 86 99 100 98 100 98 95 75 88 100 95 100 100 100 100 100 69 57 55 41 37 43 45 37 26 26 28 30
72 69 76 67 68 66 69 59 50 44 33 34 37 37 35 34 38 41 67 96 98 95 100 100 96 83 100 100 95 99 100 100 100 84 66 70 53 37 39 55 46 42 32 22 30
54 57 60 78 72 77 77 76 60 50 37 36 36 37 41 41 37 42 45 73 100 100 100 100 100 96 100 94 96 79 100 100 95 95 84 76 61 46 38 46 58 54 55 36 29
67 69 73 76 88 82 77 72 68 52 48 41 37 37 38 45 47 44 48 51 87 100 100 100 100 100 100 99 96 100 91 82 95 100 100 86 82 49 44 44 57 66 59 60 45
85 90 90 93 96 92 77 64 54 53 52 48 44 42 39 38 50 54 54 57 66 96 100 100 100 100 100 98 88 96 100 100 86 96 100 100 100 68 49 43 59 72 76 66 56
77 71 78 86 75 62 57 47 43 45 47 42 39 37 44 51 51 55 56 58 61 80 99 100 100 100 100 100 100 100 100 100 100 82 98 100 100 100 57 53 60 72 76 74 63
97 86 80 64 47 43 37 36 38 42 43 40 39 38 38 40 58 67 63 62 66 59 62 72 98 100 100 100 100 100 100 98 85 96 85 100 100 100 70 60 57 66 65 77 74
78 64 55 51 58 56 41 41 54 56 41 30 34 32 35 36 37 42 43 66 75 80 67 65 62 71 96 100 100 100 100 100 100 100 92 100 100 100 100 65 61 61 68 65 68
54 48 46 44 41 37 29 30 37 39 31 29 32 32 42 40 32 27 26 31 38 59 74 82 65 67 72 78 98 97 100 100 100 100 100 100 100 100 100 70 59 61 70 84 72
23 23 24 24 25 26 26 26 25 28 30 29 24 23 26 30 22 18 18 23 26 31 32 40 74 65 75 97 80 81 88 94 100 100 100 100 84 100 100 100 82 67 64 75 90
20 21 22 22 22 22 22 24 25 25 24 24 24 27 27 25 23 28 32 28 21 23 24 26 30 48 55 71 96 100 100 81 84 88 78 90 99 100 99 100 100 72 62 70 75
21 21 22 22 23 22 21 22 23 23 22 21 20 20 19 18 22 23 25 29 26 20 23 26 22 23 32 38 57 83 100 100 96 72 74 78 86 88 100 100 100 100 59 64 60
19 19 19 21 20 21 20 21 22 23 22 22 22 21 20 21 19 19 20 22 25 24 20 20 20 21 20 22 25 31 59 92 87 100 97 100 68 81 86 98 100 100 78 51 55
19 16 18 21 20 20 20 20 20 20 20 21 19 20 20 18 18 21 19 21 25 25 25 22 18 25 20 24 24 23 24 33 71 95 83 87 95 100 100 80 84 88 74 63 56
16 16 14 17 17 16 15 15 15 14 15 16 15 16 17 16 14 16 19 20 22 22 25 24 23 22 20 26 26 18 22 25 26 34 59 79 76 73 74 83 98 100 100 94 86

GFSSW_250_rhum_249.txt.gz
RH
30 20 19 20 19 18 19 16 15 14 16 18 21 30 33 37 49 50 58 58 55 60 63 62 49 44 44 45 40 37 35 35 26 21 16 17 12 7 4 4 5 9 12 50 73
85 67 22 20 20 21 22 23 24 24 28 33 36 41 42 38 41 45 50 58 63 63 76 84 56 45 48 51 45 43 40 37 29 19 16 17 9 4 3 3 4 6 38 99 100
99 93 82 83 38 23 21 22 24 27 29 30 33 34 35 40 39 34 38 63 77 66 87 100 83 55 48 53 50 49 45 37 30 20 16 17 7 4 3 3 4 76 100 100 100
97 98 100 93 76 69 71 52 40 27 27 30 34 37 37 34 34 34 41 86 85 100 93 84 79 81 53 60 58 58 52 42 31 22 16 19 7 4 3 2 5 100 100 95 98
90 78 82 97 99 94 80 77 84 95 75 52 45 46 44 45 50 47 65 98 97 96 94 67 60 65 65 67 64 65 58 49 38 28 17 18 14 9 7 4 6 100 100 100 98
73 63 58 72 78 81 80 77 84 82 100 100 94 94 100 100 100 100 99 100 100 82 85 88 80 68 63 75 80 78 58 53 44 42 20 18 25 23 40 51 7 19 99 100 100
79 63 52 45 46 55 61 61 63 66 72 76 78 98 100 84 91 98 86 93 79 65 62 68 71 73 77 84 95 82 65 68 54 50 31 22 24 26 20 86 76 7 15 88 90
63 78 75 77 82 75 65 56 52 46 46 49 62 76 82 91 98 100 86 89 88 98 84 78 62 74 74 76 78 81 82 95 72 59 46 34 24 26 26 17 92 99 44 40 87
48 44 45 49 65 71 71 60 55 51 47 41 37 37 42 58 71 85 99 99 93 92 97 90 96 97 92 76 59 83 100 99 84 74 66 50 46 28 28 24 16 76 100 35 91
38 37 42 41 42 51 66 66 63 52 47 43 42 37 35 39 34 39 54 76 98 98 88 74 85 100 100 81 70 61 100 88 90 96 82 83 61 43 32 29 26 54 75 99 70
43 46 47 55 45 47 45 46 42 47 44 40 38 35 35 33 34 34 35 34 48 68 77 84 83 91 72 75 79 56 66 77 99 100 91 94 76 62 37 28 26 28 29 82 100
77 75 97 100 90 75 58 49 43 45 54 47 40 42 42 47 41 44 41 34 32 37 48 58 85 87 82 93 78 64 72 99 100 100 94 100 60 69 44 37 33 28 28 30 46
69 60 65 59 57 53 50 48 46 49 47 73 54 50 51 46 44 41 40 37 34 32 33 39 65 90 89 91 92 83 73 72 100 100 99 96 98 58 46 56 40 34 28 27 23
72 65 60 56 48 44 39 37 41 41 39 58 75 74 65 58 58 44 42 36 33 32 30 31 43 72 95 100 93 93 94 93 100 100 100 84 100 80 67 68 52 41 33 35 25
54 54 53 57 50 42 42 48 52 54 46 78 86 99 100 82 68 54 41 37 36 35 35 41 38 42 92 100 100 100 99 100 78 99 100 95 100 81 80 68 68 55 41 36 42
55 59 74 75 78 72 67 66 66 62 70 85 98 100 93 80 70 64 54 48 38 34 36 46 43 56 58 82 100 100 100 100 100 99 100 100 100 100 87 85 79 70 56 44 40
97 100 89 88 70 69 71 66 48 54 66 76 88 79 79 64 55 50 52 52 51 42 36 38 50 48 48 56 87 100 100 100 100 97 100 100 100 100 98 100 88 86 80 48 48
70 66 74 78 70 64 56 44 35 46 57 50 38 36 38 40 43 45 47 52 54 45 46 50 52 46 61 58 48 81 100 100 100 100 100 100 100 100 100 100 95 99 100 66 50
45 48 53 60 60 64 59 41 40 46 51 41 30 31 31 35 37 38 36 37 40 43 47 46 54 59 57 71 58 55 83 100 100 100 100 100 100 100 100 100 100 92 100 98 66
43 42 37 32 29 28 27 25 24 24 23 21 20 19 22 24 24 22 24 30 35 42 43 47 50 62 74 67 64 81 83 75 95 100 100 100 100 100 100 100 100 100 100 100 81
46 43 37 36 33 30 28 25 22 21 20 20 21 20 22 22 22 22 21 20 20 25 30 29 31 38 64 69 84 74 75 91 70 66 97 100 100 100 100 100 100 100 100 100 99
39 32 27 26 26 25 25 25 23 21 19 19 20 21 21 22 22 23 23 27 26 23 22 23 18 23 34 40 38 67 75 74 92 97 86 83 99 100 100 100 100 100 100 100 100
25 26 23 22 23 22 22 23 22 20 20 20 22 22 20 19 20 21 23 23 23 25 27 27 22 19 17 21 24 32 64 98 90 82 70 65 77 100 100 100 100 100 100 100 100
19 19 19 20 18 18 19 20 21 20 22 23 23 23 21 19 19 17 19 24 25 21 21 24 22 20 19 23 20 20 25 35 58 71 86 75 87 100 100 100 100 100 100 97 100
15 15 15 18 19 20 20 21 21 22 22 21 20 21 19 18 20 20 15 18 23 22 21 23 18 21 24 26 22 20 23 24 24 32 65 97 81 98 100 99 96 100 100 100 96
15 15 16 18 17 17 17 16 16 19 20 20 21 20 19 18 18 21 17 17 23 24 24 22 19 20 19 24 24 20 19 21 23 24 24 63 98 88 73 81 94 95 100 100 99
10 9 9 10 10 10 11 12 12 12 14 14 16 16 16 16 15 15 16 17 20 22 24 25 19 19 17 22 25 22 22 23 23 23 21 22 28 54 94 100 96 100 100 100 93

GFSSW_250_rhum_252.txt.gz
RH
89 82 76 68 22 20 18 15 14 14 14 14 14 15 17 16 16 29 33 38 47 50 50 51 52 57 64 63 38 40 44 38 42 44 38 27 22 18 14 9 8 9 8 9 12
100 96 90 74 87 55 25 21 20 19 20 19 18 19 21 24 27 33 42 40 37 41 40 55 61 56 74 93 74 44 42 46 44 51 43 36 21 21 17 15 6 5 4 5 9
96 100 98 88 70 75 82 75 35 23 22 23 24 26 27 29 31 32 35 36 40 41 35 42 78 85 84 97 76 70 48 52 47 58 49 35 19 20 19 10 4 3 3 4 8
70 77 84 88 100 88 79 83 83 72 58 44 31 29 29 28 30 32 36 38 37 33 32 36 87 99 100 76 72 55 54 60 50 63 51 34 17 21 17 5 3 4 5 7 25
85 76 73 73 80 86 85 68 68 78 82 76 74 70 68 74 46 34 32 31 33 40 49 42 80 82 62 68 59 57 61 66 60 68 56 40 23 21 18 7 5 6 61 99 100
62 63 68 72 70 69 66 58 58 64 75 76 75 66 66 76 95 94 95 82 82 75 84 85 87 84 77 59 67 65 66 72 83 70 63 61 30 20 18 54 76 14 98 100 100
57 54 63 57 57 75 78 65 46 53 53 51 62 64 60 56 69 85 87 90 91 76 76 79 74 73 61 67 58 60 65 83 90 78 68 69 40 24 18 27 100 32 57 86 100
93 67 60 63 58 56 55 59 61 56 51 66 66 62 61 50 50 52 56 62 65 77 94 78 77 84 90 66 69 71 74 90 73 93 72 84 49 45 24 18 92 95 77 92 98
82 64 54 50 50 51 55 49 45 43 48 44 54 50 58 53 54 48 41 38 37 41 52 68 82 75 78 78 75 68 84 83 84 88 72 93 51 49 41 22 22 75 83 48 77
68 55 44 45 46 48 51 43 38 38 39 42 40 41 44 47 48 51 47 44 42 39 35 32 43 60 74 71 76 73 72 69 72 72 72 100 77 68 58 35 22 25 31 98 70
58 53 47 43 40 39 37 38 38 36 35 46 59 57 50 49 48 47 42 42 39 37 35 33 31 33 29 42 59 76 72 70 82 72 66 62 98 90 66 45 34 30 27 26 100
53 50 66 60 54 56 47 42 39 42 47 46 47 56 46 51 54 50 48 43 40 38 33 31 34 33 27 30 32 42 60 72 78 88 73 62 84 100 64 64 46 36 28 28 24
100 98 88 74 70 66 56 48 48 47 42 49 40 43 45 40 50 52 51 51 49 43 45 39 47 45 33 31 29 34 41 54 74 89 95 75 84 100 90 75 64 58 31 33 32
79 75 72 64 46 44 40 42 39 37 33 40 42 42 40 41 50 50 56 52 51 52 44 46 57 43 35 35 34 31 32 42 90 98 95 88 90 94 98 91 90 70 44 40 32
88 82 74 59 52 51 43 40 42 44 34 55 68 70 74 68 58 67 75 77 70 66 58 67 58 46 39 37 28 31 32 32 73 100 100 100 88 100 100 100 95 80 60 43 38
71 66 62 52 56 59 60 59 55 40 40 46 64 89 83 76 73 86 86 71 67 63 64 70 55 58 43 39 35 34 33 35 37 100 100 100 95 100 100 100 100 99 88 70 48
61 66 75 72 58 58 54 52 44 36 51 50 54 45 44 48 46 49 50 53 55 54 56 56 60 54 53 46 39 36 33 32 37 51 100 100 100 100 100 100 100 100 95 90 69
70 52 49 46 46 43 43 43 38 37 38 40 35 31 27 30 34 36 38 44 54 55 48 48 56 53 57 59 45 40 37 34 37 47 77 100 100 100 100 100 100 100 100 99 95
59 57 58 63 65 63 46 34 38 38 36 32 29 25 24 24 24 23 21 20 26 34 42 45 46 50 52 59 54 43 43 45 41 39 48 93 100 100 100 100 100 100 100 100 100
68 72 77 81 88 89 79 64 53 32 24 29 33 29 27 28 29 28 25 22 20 19 20 24 31 36 43 43 46 56 48 48 44 46 50 54 80 100 100 100 100 100 100 100 100
53 55 62 75 66 50 38 32 32 32 28 27 25 26 26 24 23 27 28 28 23 22 21 20 19 20 22 29 38 44 56 56 51 52 51 56 64 98 100 100 100 100 100 100 100
31 28 26 29 31 31 28 28 27 27 26 25 24 24 24 24 24 25 24 26 26 24 22 22 20 19 20 22 21 21 34 51 59 67 65 63 59 86 100 100 100 100 100 100 100
21 22 21 21 21 22 23 25 24 23 24 23 21 20 19 20 19 20 21 21 22 24 22 22 22 22 22 22 22 20 20 24 35 35 54 73 76 68 76 99 100 100 100 100 100
15 15 16 17 17 16 17 18 18 19 20 21 22 22 19 18 17 18 18 19 19 21 21 24 22 23 22 22 23 22 24 22 23 24 24 42 74 64 76 78 82 100 100 100 100
14 14 14 14 14 15 16 17 18 18 18 19 20 21 19 17 16 18 20 20 19 20 21 21 23 25 23 22 21 22 23 24 23 23 22 23 31 41 50 75 67 78 98 100 100
11 11 10 9 8 8 7 7 9 11 12 13 14 15 17 17 17 19 19 20 20 20 22 20 20 22 23 22 20 21 21 22 22 22 24 23 25 26 29 48 76 74 74 92 100
7 6 6 6 6 4 4 4 4 4 5 6 7 9 10 11 13 14 16 18 20 19 21 22 22 21 20 21 20 21 18 21 23 22 19 20 22 23 23 25 42 83 83 95 90